TimeCST,TemperatureF,Dew PointF,Humidity,Sea Level PressureIn,VisibilityMPH,Wind Direction,Wind SpeedMPH,Gust SpeedMPH,PrecipitationIn,Events,Conditions,WindDirDegrees,DateUTC
12:15 AM,44.6,33.8,66,29.91,10.0,Calm,Calm,-,N/A,,Clear,0,2012-12-07 06:15:00
12:35 AM,44.6,35.6,71,29.91,10.0,Calm,Calm,-,N/A,,Clear,0,2012-12-07 06:35:00
12:55 AM,44.6,35.6,71,29.91,10.0,Calm,Calm,-,N/A,,Clear,0,2012-12-07 06:55:00
1:15 AM,44.6,35.6,71,29.90,10.0,Calm,Calm,-,N/A,,Clear,0,2012-12-07 07:15:00
1:35 AM,42.8,33.8,70,29.90,10.0,NNE,4.6,-,N/A,,Clear,20,2012-12-07 07:35:00
1:55 AM,42.8,33.8,70,29.90,10.0,NNE,3.5,-,N/A,,Clear,20,2012-12-07 07:55:00
2:15 AM,42.8,32.0,66,-9999,10.0,North,-9999.0,-,N/A,,Clear,0,2012-12-07 08:15:00
2:35 AM,41.0,33.8,76,29.90,10.0,NNE,3.5,-,N/A,,Clear,20,2012-12-07 08:35:00
2:55 AM,42.8,33.8,70,29.89,10.0,Calm,Calm,-,N/A,,Clear,0,2012-12-07 08:55:00
3:15 AM,42.8,33.8,70,29.89,10.0,Calm,Calm,-,N/A,,Clear,0,2012-12-07 09:15:00
3:35 AM,42.8,33.8,70,29.89,10.0,Calm,Calm,-,N/A,,Clear,0,2012-12-07 09:35:00
3:55 AM,41.0,33.8,76,29.88,10.0,Calm,Calm,-,N/A,,Clear,0,2012-12-07 09:55:00
4:15 AM,39.2,33.8,81,29.88,10.0,NNE,3.5,-,N/A,,Clear,20,2012-12-07 10:15:00
4:35 AM,42.8,35.6,76,29.88,10.0,Calm,Calm,-,N/A,,Clear,0,2012-12-07 10:35:00
4:55 AM,39.2,33.8,81,29.88,10.0,Calm,Calm,-,N/A,,Clear,0,2012-12-07 10:55:00
5:15 AM,39.2,33.8,81,29.88,10.0,Calm,Calm,-,N/A,,Clear,0,2012-12-07 11:15:00
5:35 AM,39.2,32.0,75,29.89,10.0,NNE,3.5,-,N/A,,Clear,20,2012-12-07 11:35:00
5:55 AM,39.2,33.8,81,29.89,10.0,Calm,Calm,-,N/A,,Clear,0,2012-12-07 11:55:00
6:15 AM,39.2,33.8,81,29.89,10.0,Calm,Calm,-,N/A,,Clear,0,2012-12-07 12:15:00
6:35 AM,39.2,33.8,81,29.90,10.0,Calm,Calm,-,N/A,,Clear,0,2012-12-07 12:35:00
6:55 AM,39.2,33.8,81,29.90,10.0,Calm,Calm,-,N/A,,Clear,0,2012-12-07 12:55:00
7:15 AM,39.2,33.8,81,29.91,10.0,NNE,4.6,-,N/A,,Clear,20,2012-12-07 13:15:00
7:35 AM,39.2,32.0,75,29.91,10.0,Calm,Calm,-,N/A,,Clear,0,2012-12-07 13:35:00
7:55 AM,39.2,33.8,81,29.92,10.0,NNE,4.6,-,N/A,,Clear,20,2012-12-07 13:55:00
8:15 AM,42.8,35.6,76,29.93,10.0,NNE,8.1,-,N/A,,Mostly Cloudy,20,2012-12-07 14:15:00
8:35 AM,46.4,37.4,71,29.94,10.0,NNE,5.8,-,N/A,,Overcast,20,2012-12-07 14:35:00
8:55 AM,50.0,42.8,76,29.94,10.0,Calm,Calm,-,N/A,,Overcast,0,2012-12-07 14:55:00
9:15 AM,51.8,44.6,76,29.94,10.0,Calm,Calm,-,N/A,,Mostly Cloudy,0,2012-12-07 15:15:00
9:35 AM,55.4,46.4,72,29.94,10.0,Calm,Calm,-,N/A,,Overcast,0,2012-12-07 15:35:00
9:55 AM,55.4,51.8,88,29.95,6.0,Calm,Calm,-,N/A,,Haze,0,2012-12-07 15:55:00
10:15 AM,57.2,53.6,88,29.95,5.0,Calm,Calm,-,N/A,,Mostly Cloudy,0,2012-12-07 16:15:00
10:35 AM,59.0,55.4,88,29.95,5.0,Calm,Calm,-,N/A,,Mostly Cloudy,0,2012-12-07 16:35:00
10:55 AM,60.8,55.4,82,29.95,5.0,WSW,3.5,-,N/A,,Mostly Cloudy,250,2012-12-07 16:55:00
11:15 AM,60.8,55.4,82,29.95,6.0,West,5.8,-,N/A,,Haze,280,2012-12-07 17:15:00
11:35 AM,60.8,55.4,82,29.94,5.0,West,4.6,-,N/A,,Haze,260,2012-12-07 17:35:00
11:55 AM,62.6,55.4,77,29.94,5.0,SW,8.1,-,N/A,,Haze,230,2012-12-07 17:55:00
12:15 PM,62.6,55.4,77,29.92,6.0,SSW,6.9,-,N/A,,Haze,210,2012-12-07 18:15:00
12:35 PM,64.4,55.4,73,29.91,8.0,SW,6.9,-,N/A,,Clear,230,2012-12-07 18:35:00
12:55 PM,66.2,55.4,68,29.90,9.0,South,4.6,-,N/A,,Clear,190,2012-12-07 18:55:00
1:15 PM,68.0,55.4,64,29.88,10.0,South,6.9,-,N/A,,Clear,190,2012-12-07 19:15:00
1:35 PM,68.0,53.6,60,29.88,10.0,SSW,6.9,-,N/A,,Clear,200,2012-12-07 19:35:00
1:55 PM,69.8,53.6,56,29.86,10.0,South,9.2,-,N/A,,Clear,180,2012-12-07 19:55:00
2:15 PM,71.6,53.6,53,29.86,10.0,SW,5.8,-,N/A,,Clear,220,2012-12-07 20:15:00
2:35 PM,69.8,53.6,56,29.86,10.0,SSW,8.1,-,N/A,,Clear,200,2012-12-07 20:35:00
2:55 PM,71.6,53.6,53,29.85,10.0,South,6.9,-,N/A,,Clear,190,2012-12-07 20:55:00
3:15 PM,71.6,53.6,53,29.85,10.0,SSW,8.1,-,N/A,,Clear,200,2012-12-07 21:15:00
3:35 PM,71.6,53.6,53,29.84,10.0,SSW,4.6,-,N/A,,Clear,200,2012-12-07 21:35:00
3:55 PM,73.4,53.6,50,29.84,10.0,SSW,4.6,-,N/A,,Clear,200,2012-12-07 21:55:00
4:15 PM,73.4,51.8,47,29.84,10.0,South,5.8,-,N/A,,Clear,180,2012-12-07 22:15:00
4:35 PM,73.4,51.8,47,29.84,10.0,SW,4.6,-,N/A,,Clear,230,2012-12-07 22:35:00
4:55 PM,73.4,50.0,44,29.85,10.0,West,4.6,-,N/A,,Clear,260,2012-12-07 22:55:00
5:15 PM,71.6,50.0,46,29.85,10.0,Calm,Calm,-,N/A,,Clear,0,2012-12-07 23:15:00
5:35 PM,66.2,50.0,56,29.86,10.0,Calm,Calm,-,N/A,,Clear,0,2012-12-07 23:35:00
5:55 PM,64.4,50.0,59,29.86,10.0,Calm,Calm,-,N/A,,Clear,0,2012-12-07 23:55:00
6:15 PM,62.6,50.0,63,29.86,10.0,Calm,Calm,-,N/A,,Clear,0,2012-12-08 00:15:00
6:35 PM,60.8,50.0,68,29.87,10.0,Calm,Calm,-,N/A,,Clear,0,2012-12-08 00:35:00
6:55 PM,57.2,48.2,72,29.88,10.0,Calm,Calm,-,N/A,,Clear,0,2012-12-08 00:55:00
7:15 PM,57.2,48.2,72,29.88,10.0,Calm,Calm,-,N/A,,Clear,0,2012-12-08 01:15:00
7:35 PM,55.4,48.2,77,29.90,5.0,Calm,Calm,-,N/A,,Haze,0,2012-12-08 01:35:00
7:55 PM,53.6,46.4,77,29.90,10.0,Calm,Calm,-,N/A,,Clear,0,2012-12-08 01:55:00
8:15 PM,51.8,44.6,76,29.91,10.0,Calm,Calm,-,N/A,,Clear,0,2012-12-08 02:15:00
8:35 PM,53.6,46.4,77,29.91,10.0,Calm,Calm,-,N/A,,Clear,0,2012-12-08 02:35:00
8:55 PM,53.6,46.4,77,29.92,10.0,Calm,Calm,-,N/A,,Clear,0,2012-12-08 02:55:00
9:15 PM,51.8,44.6,76,29.92,10.0,Calm,Calm,-,N/A,,Clear,0,2012-12-08 03:15:00
9:35 PM,48.2,42.8,82,29.92,10.0,Calm,Calm,-,N/A,,Clear,0,2012-12-08 03:35:00
9:55 PM,48.2,42.8,82,29.93,10.0,Calm,Calm,-,N/A,,Clear,0,2012-12-08 03:55:00
10:35 PM,46.4,42.8,87,29.93,10.0,Calm,Calm,-,N/A,,Clear,0,2012-12-08 04:35:00
10:55 PM,46.4,42.8,87,29.93,10.0,North,4.6,-,N/A,,Clear,10,2012-12-08 04:55:00
11:15 PM,46.4,42.8,87,29.92,10.0,Calm,Calm,-,N/A,,Clear,0,2012-12-08 05:15:00
11:35 PM,46.4,42.8,87,29.93,10.0,Calm,Calm,-,N/A,,Clear,0,2012-12-08 05:35:00
11:55 PM,44.6,41.0,87,29.93,10.0,Calm,Calm,-,N/A,,Clear,0,2012-12-08 05:55:00